Location: Berduj
(43.0019°N, 22.3781°E)
Time: 06:38:00
(UTC+00:00)

Cosmos 292 Rocket - Pass Details

Date: 19 October 2019
Orbit: 673 x 694 km, 74.0° (Epoch: 12 November)

Event Time Altitude Azimuth Distance (km) Brightness Sun altitude
Rises 16:08:57 0° 186° (S) 3,010 7.3 -5.6°
Reaches altitude 10° 16:11:16 10° 181° (S) 2,099 6.4 -6.1°
Maximum altitude 16:15:51 53° 105° (ESE) 831 3.9 -6.9°
Drops below altitude 10° 16:20:28 10° 29° (NNE) 2,116 6.0 -7.7°
Sets 16:22:48 0° 25° (NNE) 3,036 6.8 -8.2°
